Weather History for Cleveland Municipal Airport, MS

Change the Weather History Date:

Monday, March 24, 2014

  Actual Average (KGLH) Record (KGLH)
Temperature  
Mean Temperature 46 °F 57 °F  
Max Temperature 57 °F 68 °F 91 °F (1929)
Min Temperature 35 °F 46 °F 28 °F (1974)
Degree Days  
Heating Degree Days 19 9  
Month to date heating degree days 279  
Since 1 July heating degree days 2588  
Cooling Degree Days 0 1  
Month to date cooling degree days 10  
Year to date cooling degree days 15  
Moisture  
Dew Point 30 °F    
Average Humidity 55    
Maximum Humidity 81    
Minimum Humidity 30    
Precipitation  
Precipitation 0.00 in 0.17 in 3.03 in (1958)
Month to date precipitation 3.28  
Year to date precipitation 13.27  
Sea Level Pressure  
Sea Level Pressure 30.18 in    
Wind  
Wind Speed 9 mph (NNE)    
Max Wind Speed 14 mph    
Max Gust Speed 21 mph    
Visibility 10 miles    
Events      
T = Trace of Precipitation, MM = Missing Value Source: NWS Daily Summary

Daily Weather History Graph

Daily Weather History Graph

Search for Another Location

Airport:

Trip Planner

Search our weather history database for the weather conditions in past years. The results will help you decide how hot, cold, wet, or windy it might be!

Date:

Astronomy

Mar. 24, 2014 Rise Set
Actual Time 7:01 AM CDT 7:17 PM CDT
Civil Twilight 6:36 AM CDT 7:42 PM CDT
Nautical Twilight 6:07 AM CDT 8:11 PM CDT
Astronomical Twilight 5:37 AM CDT 8:41 PM CDT
Moon 2:16 AM CDT (3/24) 12:58 PM CDT (3/24)
Length of Visible Light 13h 06m
Length of Day
12h 16m
Last Quarter, 43% of the Moon is Illuminated
Mar 24
Last Quarter
Mar 30
New
Apr 7
First Quarter
Apr 15
Full
Apr 22
Last Quarter

Hourly Weather History & Observations

Time (CDT) Temp. Windchill Dew Point Humidity Pressure Visibility Wind Dir Wind Speed Gust Speed Precip Events Conditions
12:15 AM 41.4 °F 34.7 °F 32.0 °F 69% 30.25 in 10.0 mi NNE 11.5 mph - N/A   Clear
12:35 AM 41.2 °F 34.5 °F 32.0 °F 70% 30.25 in 10.0 mi NE 11.5 mph - N/A   Clear
12:55 AM 40.8 °F 34.5 °F 32.0 °F 71% 30.26 in 10.0 mi NNE 10.4 mph - N/A   Clear
1:15 AM 40.3 °F 34.9 °F 32.0 °F 72% 30.26 in 10.0 mi NNE 8.1 mph - N/A   Clear
1:35 AM 39.7 °F 33.7 °F 32.0 °F 74% 30.26 in 10.0 mi NNE 9.2 mph - N/A   Clear
1:55 AM 39.2 °F 33.0 °F 32.0 °F 75% 30.26 in 10.0 mi NNE 9.2 mph - N/A   Clear
2:15 AM 38.7 °F 32.9 °F 32.0 °F 77% 30.26 in 10.0 mi NNE 8.1 mph - N/A   Clear
2:55 AM 38.1 °F 32.9 °F 31.6 °F 77% 30.26 in 10.0 mi NNE 6.9 mph - N/A   Clear
3:15 AM 37.6 °F 33.1 °F 31.6 °F 79% 30.26 in 10.0 mi NNE 5.8 mph - N/A   Clear
3:35 AM 36.9 °F 31.4 °F 31.5 °F 81% 30.25 in 10.0 mi NNE 6.9 mph - N/A   Clear
3:55 AM 37.2 °F 32.6 °F 30.9 °F 78% 30.25 in 10.0 mi NE 5.8 mph - N/A   Clear
4:15 AM 36.1 °F 30.6 °F 30.9 °F 81% 30.25 in 10.0 mi NNE 6.9 mph - N/A   Clear
4:35 AM 35.8 °F 31.9 °F 30.6 °F 81% 30.25 in 10.0 mi NE 4.6 mph - N/A   Clear
4:55 AM 35.8 °F 30.9 °F 30.6 °F 81% 30.25 in 10.0 mi NE 5.8 mph - N/A   Clear
5:15 AM 36.5 °F 31.0 °F 30.0 °F 77% 30.25 in 10.0 mi NE 6.9 mph - N/A   Clear
5:35 AM 36.1 °F 30.6 °F 29.8 °F 78% 30.25 in 10.0 mi NE 6.9 mph - N/A   Clear
5:55 AM 36.3 °F 30.1 °F 29.5 °F 76% 30.25 in 10.0 mi NE 8.1 mph - N/A   Clear
6:15 AM 36.0 °F 30.3 °F 29.5 °F 77% 30.25 in 10.0 mi NE 6.9 mph - N/A   Clear
6:35 AM 35.6 °F 29.9 °F 29.7 °F 79% 30.25 in 10.0 mi NNE 6.9 mph - N/A   Clear
6:55 AM 35.6 °F 29.2 °F 29.5 °F 78% 30.25 in 10.0 mi NNE 8.1 mph - N/A   Clear
7:15 AM 35.2 °F 28.1 °F 29.7 °F 80% 30.25 in 10.0 mi NNE 9.2 mph - N/A   Clear
7:35 AM 36.1 °F 29.3 °F 29.7 °F 77% 30.25 in 10.0 mi NE 9.2 mph - N/A   Clear
7:55 AM 37.6 °F 30.5 °F 29.3 °F 72% 30.25 in 10.0 mi NE 10.4 mph - N/A   Clear
8:15 AM 39.2 °F 32.5 °F 30.7 °F 72% 30.26 in 10.0 mi ENE 10.4 mph - N/A   Clear
8:35 AM 39.9 °F 32.5 °F 30.2 °F 68% 30.26 in 10.0 mi ENE 12.7 mph - N/A   Clear
8:55 AM 41.0 °F 33.9 °F 30.4 °F 66% 30.26 in 10.0 mi ENE 12.7 mph - N/A   Clear
9:15 AM 42.3 °F 35.1 °F 29.7 °F 61% 30.26 in 10.0 mi East 13.8 mph - N/A   Clear
9:35 AM 43.9 °F 37.5 °F 30.0 °F 58% 30.26 in 10.0 mi East 12.7 mph - N/A   Clear
9:55 AM 44.4 °F 38.2 °F 28.8 °F 54% 30.26 in 10.0 mi East 12.7 mph - N/A   Clear
10:15 AM 45.5 °F 40.8 °F 30.4 °F 56% 30.26 in 10.0 mi East 9.2 mph - N/A   Clear
10:35 AM 46.6 °F - 29.7 °F 52% 30.25 in 10.0 mi East 8.1 mph - N/A   Clear
10:55 AM 47.7 °F - 30.0 °F 50% 30.25 in 10.0 mi NE 9.2 mph - N/A   Clear
11:15 AM 48.7 °F - 29.7 °F 48% 30.24 in 10.0 mi ENE 9.2 mph - N/A   Clear
11:35 AM 49.6 °F - 29.8 °F 47% 30.24 in 10.0 mi ENE 5.8 mph - N/A   Clear
11:55 AM 50.7 °F - 30.2 °F 45% 30.22 in 10.0 mi North 5.8 mph - N/A   Clear
12:15 PM 52.0 °F - 28.9 °F 41% 30.21 in 10.0 mi NE 10.4 mph - N/A   Clear
12:35 PM 52.7 °F - 30.7 °F 43% 30.20 in 10.0 mi NNE 9.2 mph 17.3 mph N/A   Clear
12:55 PM 53.6 °F - 29.8 °F 40% 30.19 in 10.0 mi NE 6.9 mph 20.7 mph N/A   Clear
1:15 PM 54.0 °F - 30.2 °F 40% 30.18 in 10.0 mi NNE 9.2 mph - N/A   Clear
1:35 PM 54.5 °F - 29.3 °F 38% 30.17 in 10.0 mi NE 9.2 mph - N/A   Clear
1:55 PM 54.9 °F - 28.8 °F 37% 30.15 in 10.0 mi North 8.1 mph - N/A   Clear
2:15 PM 55.4 °F - 29.5 °F 37% 30.14 in 10.0 mi NE 8.1 mph - N/A   Clear
2:35 PM 55.8 °F - 28.6 °F 35% 30.12 in 10.0 mi Calm Calm - N/A   Clear
2:55 PM 56.3 °F - 28.0 °F 34% 30.11 in 10.0 mi ENE 5.8 mph - N/A   Clear
3:15 PM 57.4 °F - 28.4 °F 33% 30.09 in 10.0 mi North 3.5 mph - N/A   Clear
3:35 PM 56.7 °F - 26.2 °F 31% 30.08 in 10.0 mi NNW 6.9 mph - N/A   Clear
3:55 PM 57.0 °F - 26.6 °F 31% 30.07 in 10.0 mi North 8.1 mph - N/A   Clear
4:15 PM 57.2 °F - 26.2 °F 31% 30.05 in 10.0 mi NE 5.8 mph - N/A   Clear
4:35 PM 57.2 °F - 26.6 °F 31% 30.05 in 10.0 mi North 8.1 mph - N/A   Clear
4:55 PM 57.6 °F - 27.0 °F 31% 30.04 in 10.0 mi NNE 6.9 mph - N/A   Clear
5:15 PM 57.9 °F - 26.4 °F 30% 30.04 in 10.0 mi North 8.1 mph - N/A   Clear
5:35 PM 57.4 °F - 27.1 °F 31% 30.04 in 10.0 mi North 10.4 mph - N/A   Clear
5:55 PM 57.0 °F - 26.2 °F 31% 30.04 in 10.0 mi North 8.1 mph - N/A   Clear
6:15 PM 56.3 °F - 25.3 °F 30% 30.05 in 10.0 mi North 8.1 mph - N/A   Clear
6:35 PM 54.9 °F - 28.4 °F 36% 30.05 in 10.0 mi North 13.8 mph 18.4 mph N/A   Clear
6:55 PM 53.8 °F - 28.0 °F 37% 30.06 in 10.0 mi North 11.5 mph - N/A   Clear
7:15 PM 52.0 °F - 30.0 °F 43% 30.06 in 10.0 mi North 9.2 mph - N/A   Clear
7:35 PM 50.7 °F - 28.9 °F 43% 30.07 in 10.0 mi North 9.2 mph - N/A   Clear
7:55 PM 50.4 °F - 26.8 °F 40% 30.09 in 10.0 mi North 8.1 mph - N/A   Clear
8:15 PM 48.7 °F - 29.3 °F 47% 30.09 in 10.0 mi NNW 6.9 mph - N/A   Clear
8:35 PM 47.7 °F - 29.5 °F 49% 30.10 in 10.0 mi NNW 6.9 mph - N/A   Clear
8:55 PM 47.5 °F - 29.3 °F 49% 30.12 in 10.0 mi NNW 8.1 mph - N/A   Scattered Clouds
9:15 PM 48.9 °F - 29.1 °F 46% 30.12 in 10.0 mi NNW 9.2 mph - N/A   Overcast
9:35 PM 49.1 °F - 28.6 °F 45% 30.12 in 10.0 mi North 9.2 mph - N/A   Overcast
9:55 PM 47.8 °F - 28.4 °F 47% 30.12 in 10.0 mi North 8.1 mph - N/A   Scattered Clouds
10:15 PM 45.5 °F 41.8 °F 30.6 °F 56% 30.13 in 10.0 mi North 6.9 mph - N/A   Clear
10:35 PM 45.5 °F 41.8 °F 29.7 °F 54% 30.13 in 10.0 mi North 6.9 mph - N/A   Clear
10:55 PM 44.8 °F 41.0 °F 29.8 °F 56% 30.13 in 10.0 mi North 6.9 mph - N/A   Clear
11:15 PM 43.3 °F 39.2 °F 31.1 °F 62% 30.14 in 10.0 mi North 6.9 mph - N/A   Clear
11:35 PM 42.6 °F 39.0 °F 30.6 °F 62% 30.13 in 10.0 mi North 5.8 mph - N/A   Clear
11:55 PM 41.0 °F 37.1 °F 32.0 °F 70% 30.13 in 10.0 mi North 5.8 mph - N/A   Clear